Tracking 18980 objects as of 18-Feb-2018
HD Live streaming from Space Station
objects crossing your sky now

FORMOSAT 3A

Track FORMOSAT 3A now!
10-day predictions
FORMOSAT 3A is classified as:


NORAD ID: 29047
Int'l Code: 2006-011A
Perigee: 769.1 km
Apogee: 837.8 km
Inclination: 72.0 °
Period: 100.8 minutes
Semi major axis: 7174 km
RCS: 0.591 m2 (medium)
Launch date: April 15, 2006
Source: Taiwan (Republic of China) (ROC)
Launch site: AIR FORCE WESTERN TEST RANGE (AFWTR)
aabbcc
Your satellite tracking list
Your tracking list is empty




NASA's NSSDC Master Catalog

Two Line Element Set (TLE):
1 29047U 06011A   18048.40388751 +.00000032 +00000-0 +28864-4 0  9994
2 29047 071.9788 046.8182 0047875 089.6655 270.9967 14.28622523619778
Source of the keplerian elements: AFSPC